[[{"header":{"parameterUnit":"m.s-1","parameterCategory":2,"la1":30.2992,"la2":30.254,"lo1":-89.0895,"lo2":-89.0443,"dy":0.0025,"dx":0.0025,"nx":19,"ny":19,"refTime":"2026-05-11T09:00:00:Z","depth":"0","parameterNumber":2,"parameterNumberName":"U-component_of_CURRENTS"},"data":[0,0,0,0.0665,0.0667,0.0791,0.0791,0.0888,0.0889,0,0,0,0,0,0,0,0,0,0,0,0.0618,0.0619,0.0665,0.0668,0.0791,0.0791,0.0888,0.0889,0,0,0,0,0,0,0,0,0,0,0,0.0618,0.0619,0.0619,0.0668,0.0791,0.0792,0.0888,0.0814,0,0,0,0,0,0,0,0,0,0,0.0703,0.0657,0.0619,0.0619,0.0669,0.079,0.0792,0.0811,0.0818,0.081,0,0.082,0,0.085,0.0892,0.0893,0,0,0,0.0682,0.0651,0.0688,0.0619,0.067,0.079,0.0739,0.0816,0.0824,0.082,0.0822,0.0826,0.0852,0.0893,0.0893,0.0909,0.0909,0,0,0.0675,0.064,0.0682,0.0693,0.0688,0.0735,0.0743,0.0821,0.082,0.0822,0.0829,0.0854,0.0893,0.0894,0.091,0.0909,0,0,0,0.0646,0.0635,0.0672,0.0688,0.0712,0.0738,0.0747,0.0817,0.083,0.083,0.0855,0.0893,0.0894,0.091,0.0909,0.0827,0,0,0,0.0643,0.0617,0.0668,0.0649,0.071,0.0773,0.074,0.0825,0.0835,0.0854,0.0893,0.0895,0.091,0.091,0.083,0.0799,0,0,0,0.0615,0.0615,0.0626,0.0646,0.0695,0.0772,0.0791,0.0828,0.0848,0.0893,0.0895,0.091,0.091,0.0832,0.0804,0.0766,0,0,0,0.0581,0.0583,0.0624,0.0639,0.0693,0.0734,0.0791,0.0822,0.0852,0.0894,0.091,0.0909,0.0833,0.0806,0.0769,0.0711,0.0694,0,0,0.0564,0.058,0.0591,0.0632,0.0651,0.0719,0.073,0.0792,0.0843,0.0883,0.0885,0.0829,0.0804,0.0767,0.0679,0.0662,0,0,0,0.0574,0.0578,0.0593,0.0618,0.0657,0.0677,0.0739,0.0769,0.0813,0.0858,0.0841,0.0828,0.0807,0.0778,0.0765,0.0681,0.0907,0.0907,0.0907,0.0483,0.053,0.054,0.0587,0.0602,0.0644,0.0668,0.0719,0.0763,0.0768,0.0769,0.0697,0.0665,0.0655,0.0568,0.0776,0.0776,0.0776,0.0775,0.0446,0.0469,0.05,0.0527,0.0544,0.0548,0.06,0.0629,0.0657,0.071,0.0693,0.0703,0.0635,0.0549,0.077,0.0771,0.0772,0.0772,0.0773,0.0389,0.0417,0.043,0.0456,0.046,0.0491,0.0499,0.0543,0.0584,0.0573,0.0554,0.0555,0.0472,0.0558,0.0557,0.0557,0.0557,0.0556,0.0556,0.0342,0.0367,0.0366,0.0395,0.0399,0.0408,0.0441,0.0445,0.0437,0.0466,0.0466,0.043,0.0631,0.0632,0.0551,0.0552,0.0553,0.0553,0.0554,0.0309,0.0319,0.0321,0.032,0.0344,0.0346,0.0359,0.0319,0.0314,0.0284,0.0247,0.0417,0.0441,0.0452,0.045,0.0327,0.0327,0.0327,0.0327,0.028,0.0288,0.0296,0.0294,0.0301,0.0326,0.0262,0.0198,0.0124,0.0086,0.0105,0.0121,0.0134,0.0143,0.0161,0.0155,-0.0041,-0.0042,-0.0042,0.0245,0.027,0.0252,0.0278,0.0295,0.0302,0.0238,0.0086,-0.0042,-0.0063,-0.0008,0.0007,0.003,0.0058,0.0078,0.011,0.0105,0,0]},{"header":{"parameterUnit":"m.s-1","parameterCategory":2,"la1":30.2992,"la2":30.254,"lo1":-89.0895,"lo2":-89.0443,"dy":0.0025,"dx":0.0025,"nx":19,"ny":19,"refTime":"2026-05-11T09:00:00:Z","depth":"0","parameterNumber":3,"parameterNumberName":"V-component_of_CURRENTS"},"data":[0,0,0,0.063,0.063,0.0642,0.0642,0.0658,0.0658,0,0,0,0,0,0,0,0,0,0,0,0.0624,0.0624,0.063,0.063,0.0642,0.0642,0.0658,0.0658,0,0,0,0,0,0,0,0,0,0,0,0.0625,0.0624,0.0623,0.063,0.0642,0.0642,0.0658,0.0655,0,0,0,0,0,0,0,0,0,0,0.0646,0.0674,0.0624,0.0623,0.063,0.0642,0.0642,0.0655,0.0655,0.0645,0,0.0627,0,0.0631,0.0657,0.0657,0,0,0,0.0655,0.0674,0.0629,0.0623,0.0629,0.0641,0.0643,0.0656,0.0656,0.0645,0.0627,0.0628,0.0632,0.0657,0.0657,0.065,0.065,0,0,0.0654,0.0679,0.0629,0.0628,0.0605,0.0643,0.0643,0.0656,0.0672,0.0627,0.0628,0.0632,0.0657,0.0657,0.065,0.065,0,0,0,0.0635,0.0679,0.0635,0.0627,0.0623,0.0643,0.0643,0.0673,0.0644,0.0628,0.0632,0.0657,0.0657,0.065,0.065,0.0655,0,0,0,0.0636,0.0665,0.0634,0.0657,0.0622,0.0659,0.0661,0.0643,0.0645,0.0632,0.0657,0.0656,0.065,0.065,0.0655,0.0631,0,0,0,0.0629,0.0666,0.0647,0.0657,0.0645,0.0658,0.0634,0.0644,0.0646,0.0657,0.0656,0.065,0.065,0.0655,0.0631,0.063,0,0,0,0.0682,0.0658,0.0648,0.0635,0.0645,0.0621,0.0634,0.0635,0.0641,0.0657,0.065,0.065,0.0655,0.0631,0.063,0.0627,0.0626,0,0,0.0676,0.066,0.0648,0.0637,0.0607,0.0623,0.0626,0.0634,0.0644,0.065,0.065,0.0655,0.0631,0.063,0.0634,0.0633,0,0,0,0.0661,0.0637,0.0629,0.0614,0.0601,0.0597,0.061,0.0632,0.0655,0.0643,0.0656,0.064,0.064,0.0639,0.0637,0.0686,0.065,0.065,0.065,0.0691,0.0659,0.0628,0.0577,0.0571,0.0586,0.0604,0.0634,0.0641,0.0658,0.0647,0.0648,0.0648,0.0647,0.0698,0.0664,0.0664,0.0664,0.0664,0.0649,0.062,0.0594,0.0538,0.0534,0.0536,0.0582,0.0611,0.0649,0.0659,0.0659,0.0646,0.0646,0.0701,0.0664,0.0664,0.0664,0.0664,0.0664,0.0642,0.0623,0.0573,0.0506,0.0494,0.0498,0.0534,0.0587,0.0629,0.0641,0.0631,0.0631,0.0676,0.0638,0.0638,0.0638,0.0638,0.0637,0.0637,0.0666,0.0613,0.0553,0.0481,0.0442,0.0449,0.0509,0.0544,0.0581,0.0614,0.0615,0.0682,0.064,0.0637,0.0636,0.0636,0.0636,0.0636,0.0637,0.0615,0.0629,0.0526,0.0468,0.0397,0.0388,0.0443,0.0494,0.0531,0.0538,0.0667,0.0615,0.0607,0.0608,0.0604,0.0594,0.0594,0.0594,0.0594,0.0614,0.0609,0.05,0.0414,0.0355,0.0362,0.0366,0.0426,0.0551,0.0645,0.0678,0.0702,0.0701,0.07,0.0699,0.0698,0.0712,0.0712,0.0713,0.0564,0.0558,0.0463,0.0404,0.0326,0.033,0.0326,0.0339,0.0571,0.0723,0.0749,0.0744,0.0785,0.078,0.0783,0.0778,0.0778,0,0]}],[{"header":{"parameterUnit":"m.s-1","parameterCategory":2,"la1":30.2992,"la2":30.254,"lo1":-89.0895,"lo2":-89.0443,"dy":0.0025,"dx":0.0025,"nx":19,"ny":19,"refTime":"2026-05-11T09:00:00:Z","depth":"2","parameterNumber":2,"parameterNumberName":"U-component_of_CURRENTS"},"data":[0,0,0,0.0341,0.0342,0.0343,0.0343,0.0313,0.0313,0,0,0,0,0,0,0,0,0,0,0,0.0323,0.0323,0.0341,0.0342,0.0343,0.0343,0.0313,0.0313,0,0,0,0,0,0,0,0,0,0,0,0.0323,0.0323,0.0323,0.0342,0.0343,0.0343,0.0313,0.0317,0,0,0,0,0,0,0,0,0,0,0.0318,0.0294,0.0323,0.0323,0.0342,0.0343,0.0343,0.0317,0.0316,0.0306,0,0.0302,0,0.0319,0.0311,0.0311,0,0,0,0.0329,0.0294,0.0316,0.0323,0.0342,0.0344,0.0339,0.0317,0.0316,0.0305,0.0302,0.0302,0.0319,0.0311,0.0311,0.0269,0.0269,0,0,0.0329,0.0303,0.0317,0.0316,0.0336,0.0339,0.0339,0.0317,0.03,0.0302,0.0301,0.0318,0.0311,0.031,0.0269,0.0269,0,0,0,0.0337,0.0303,0.0325,0.0316,0.0326,0.034,0.034,0.03,0.0313,0.0301,0.0318,0.031,0.031,0.0269,0.0269,0.0242,0,0,0,0.0337,0.0309,0.0325,0.0306,0.0327,0.0315,0.0323,0.0314,0.0313,0.0318,0.031,0.031,0.027,0.0269,0.0243,0.0226,0,0,0,0.0324,0.0308,0.0311,0.0305,0.0317,0.0316,0.0326,0.0314,0.0324,0.0311,0.031,0.027,0.0269,0.0244,0.0229,0.0187,0,0,0,0.0294,0.0284,0.0309,0.029,0.0317,0.031,0.0327,0.0316,0.0303,0.031,0.027,0.0269,0.0245,0.023,0.0189,0.0118,0.0104,0,0,0.027,0.0279,0.0269,0.0294,0.0284,0.0309,0.0279,0.0277,0.029,0.0273,0.0273,0.0243,0.0229,0.0188,0.0081,0.0068,0,0,0,0.0255,0.025,0.0247,0.0245,0.0253,0.0252,0.0258,0.0257,0.025,0.0283,0.0237,0.0229,0.0204,0.0165,0.0154,0.0266,0.0266,0.0266,0.0266,0.0183,0.0204,0.0182,0.0204,0.0197,0.0208,0.0198,0.02,0.0215,0.0211,0.0203,0.0148,0.0106,0.0097,0.0201,0.0201,0.0201,0.0201,0.0201,0.0139,0.0124,0.014,0.0135,0.0145,0.0128,0.0137,0.0153,0.0132,0.0166,0.0143,0.0133,0.0084,0.0199,0.0199,0.0199,0.02,0.02,0.02,0.0076,0.0078,0.008,0.0076,0.0067,0.0085,0.005,0.0077,0.0099,0.0087,0.0035,0.0035,0.0124,0.0073,0.0073,0.0072,0.0072,0.0072,0.0072,0.0015,0.0022,0.0004,0.0012,0.0009,-0.0001,-0.0,-0.0018,-0.0027,-0.001,-0.0011,0.0104,0.0108,0.0116,0.0068,0.0068,0.0069,0.0069,0.007,-0.0031,-0.0047,-0.0059,-0.0066,-0.0073,-0.0117,-0.0115,-0.0169,-0.0176,-0.0193,-0.0074,-0.0069,-0.0072,-0.0064,-0.0061,-0.0152,-0.0152,-0.0152,-0.0152,-0.0076,-0.0081,-0.0111,-0.0126,-0.0157,-0.0167,-0.0282,-0.0335,-0.0301,-0.0284,-0.0278,-0.0261,-0.0249,-0.026,-0.0247,-0.0247,-0.0387,-0.0387,-0.0387,-0.0099,-0.01,-0.013,-0.0149,-0.0183,-0.0237,-0.0362,-0.0446,-0.0427,-0.0395,-0.03,-0.0171,-0.0128,-0.0117,-0.0116,-0.0102,-0.0095,0,0]},{"header":{"parameterUnit":"m.s-1","parameterCategory":2,"la1":30.2992,"la2":30.254,"lo1":-89.0895,"lo2":-89.0443,"dy":0.0025,"dx":0.0025,"nx":19,"ny":19,"refTime":"2026-05-11T09:00:00:Z","depth":"2","parameterNumber":3,"parameterNumberName":"V-component_of_CURRENTS"},"data":[0,0,0,-0.0716,-0.0719,-0.0834,-0.0834,-0.0853,-0.0853,0,0,0,0,0,0,0,0,0,0,0,-0.0624,-0.0624,-0.0715,-0.0719,-0.0834,-0.0834,-0.0853,-0.0853,0,0,0,0,0,0,0,0,0,0,0,-0.0624,-0.0624,-0.0624,-0.072,-0.0834,-0.0834,-0.0853,-0.0794,0,0,0,0,0,0,0,0,0,0,-0.0696,-0.0641,-0.0624,-0.0624,-0.072,-0.0834,-0.0834,-0.0792,-0.0797,-0.0771,0,-0.0766,0,-0.0839,-0.0853,-0.0853,0,0,0,-0.07,-0.0637,-0.0675,-0.0624,-0.0722,-0.0834,-0.0777,-0.0796,-0.0802,-0.0777,-0.0767,-0.0771,-0.0839,-0.0853,-0.0853,-0.0845,-0.0845,0,0,-0.0694,-0.0643,-0.0671,-0.0678,-0.072,-0.0773,-0.0781,-0.0801,-0.0786,-0.0767,-0.0773,-0.0839,-0.0853,-0.0853,-0.0845,-0.0845,0,0,0,-0.0688,-0.0638,-0.0677,-0.0674,-0.0722,-0.0777,-0.0785,-0.0784,-0.0798,-0.0774,-0.0839,-0.0853,-0.0853,-0.0845,-0.0845,-0.0813,0,0,0,-0.0684,-0.0638,-0.0673,-0.0645,-0.0721,-0.0777,-0.0767,-0.0795,-0.0803,-0.0839,-0.0853,-0.0854,-0.0845,-0.0845,-0.0814,-0.0804,0,0,0,-0.0624,-0.0633,-0.0637,-0.0641,-0.0708,-0.0779,-0.0794,-0.0799,-0.0843,-0.0853,-0.0854,-0.0845,-0.0845,-0.0815,-0.0805,-0.0779,0,0,0,-0.0582,-0.0613,-0.0634,-0.0688,-0.0707,-0.0791,-0.0795,-0.0843,-0.0852,-0.0853,-0.0845,-0.0845,-0.0815,-0.0806,-0.078,-0.0673,-0.0659,0,0,-0.0616,-0.0614,-0.0654,-0.068,-0.0765,-0.0775,-0.082,-0.0828,-0.0836,-0.0827,-0.0828,-0.0813,-0.0806,-0.0779,-0.0659,-0.0644,0,0,0,-0.0665,-0.0674,-0.0705,-0.0753,-0.0811,-0.0819,-0.0844,-0.0832,-0.082,-0.0847,-0.0817,-0.0814,-0.0798,-0.0736,-0.0725,-0.0844,-0.0844,-0.0844,-0.0844,-0.0564,-0.065,-0.0711,-0.0791,-0.0817,-0.0842,-0.083,-0.0809,-0.0816,-0.0798,-0.079,-0.0753,-0.0687,-0.0677,-0.0791,-0.0791,-0.0791,-0.0791,-0.0791,-0.0588,-0.0655,-0.0698,-0.0786,-0.0794,-0.0802,-0.0789,-0.0775,-0.0745,-0.0762,-0.0747,-0.0709,-0.0662,-0.0789,-0.0789,-0.0789,-0.079,-0.079,-0.079,-0.0549,-0.0614,-0.0635,-0.0718,-0.0746,-0.0763,-0.0754,-0.0736,-0.0709,-0.0701,-0.0632,-0.0631,-0.0728,-0.069,-0.069,-0.069,-0.069,-0.069,-0.0689,-0.0516,-0.0569,-0.0596,-0.0679,-0.0697,-0.072,-0.0729,-0.07,-0.0619,-0.059,-0.0589,-0.0719,-0.0722,-0.0723,-0.0687,-0.0687,-0.0688,-0.0688,-0.0688,-0.0558,-0.0548,-0.0591,-0.0602,-0.0666,-0.0713,-0.0704,-0.0601,-0.0557,-0.0488,-0.052,-0.0525,-0.0524,-0.0532,-0.0528,-0.0445,-0.0445,-0.0445,-0.0445,-0.0547,-0.057,-0.0601,-0.0618,-0.0652,-0.0708,-0.0639,-0.0495,-0.0384,-0.0296,-0.0302,-0.0298,-0.031,-0.03,-0.0313,-0.0306,-0.0165,-0.0164,-0.0164,-0.0544,-0.0566,-0.0592,-0.0635,-0.0668,-0.0701,-0.0621,-0.0395,-0.0164,-0.0157,-0.0298,-0.0417,-0.043,-0.0442,-0.0443,-0.0458,-0.0454,0,0]}],[{"header":{"parameterUnit":"m.s-1","parameterCategory":2,"la1":30.2992,"la2":30.254,"lo1":-89.0895,"lo2":-89.0443,"dy":0.0025,"dx":0.0025,"nx":19,"ny":19,"refTime":"2026-05-11T09:00:00:Z","depth":"4","parameterNumber":2,"parameterNumberName":"U-component_of_CURRENTS"},"data":[0,0,0,-0.0677,-0.0682,-0.0942,-0.0944,-0.1169,-0.117,0,0,0,0,0,0,0,0,0,0,0,-0.0599,-0.06,-0.0677,-0.0682,-0.0942,-0.0944,-0.1168,-0.117,0,0,0,0,0,0,0,0,0,0,0,-0.0598,-0.06,-0.0602,-0.0683,-0.0942,-0.0944,-0.1168,-0.1006,0,0,0,0,0,0,0,0,0,0,-0.077,-0.0738,-0.0599,-0.0602,-0.0684,-0.0942,-0.0944,-0.1,-0.1016,-0.101,0,-0.1048,0,-0.1093,-0.118,-0.118,0,0,0,-0.0713,-0.0725,-0.075,-0.0602,-0.0686,-0.0941,-0.0834,-0.101,-0.1028,-0.1031,-0.1051,-0.106,-0.1097,-0.1181,-0.1181,-0.1294,-0.1294,0,0,-0.0699,-0.0691,-0.0738,-0.0762,-0.0748,-0.0825,-0.0841,-0.1023,-0.1062,-0.1052,-0.1066,-0.11,-0.1182,-0.1183,-0.1294,-0.1294,0,0,0,-0.0636,-0.0681,-0.0707,-0.0752,-0.0797,-0.0832,-0.0851,-0.1056,-0.1052,-0.1069,-0.1103,-0.1183,-0.1184,-0.1294,-0.1294,-0.1231,0,0,0,-0.0629,-0.0642,-0.07,-0.0705,-0.0793,-0.0953,-0.088,-0.104,-0.1062,-0.1102,-0.1183,-0.1186,-0.1294,-0.1294,-0.1232,-0.1218,0,0,0,-0.0588,-0.0639,-0.0657,-0.0702,-0.0795,-0.095,-0.0962,-0.1047,-0.108,-0.118,-0.1186,-0.1293,-0.1294,-0.1233,-0.122,-0.1182,0,0,0,-0.0587,-0.0608,-0.0658,-0.0704,-0.0792,-0.0903,-0.0962,-0.1095,-0.1184,-0.1183,-0.1294,-0.1294,-0.1233,-0.1221,-0.1183,-0.1016,0,0,0,-0.0593,-0.0611,-0.0629,-0.0676,-0.0755,-0.087,-0.1006,-0.1155,-0.1179,-0.1231,-0.1236,-0.1231,-0.122,-0.1182,-0.1038,0,0,0,0,-0.0615,-0.0638,-0.0664,-0.0742,-0.0823,-0.0977,-0.1128,-0.1147,-0.1213,-0.1227,-0.1256,-0.1252,-0.1229,-0.1138,-0.1295,-0.1295,-0.1295,-0.1295,-0.1295,-0.0621,-0.0658,-0.0714,-0.0801,-0.0909,-0.1072,-0.1146,-0.121,-0.1227,-0.1229,-0.1218,-0.1173,-0.1076,-0.1232,-0.1232,-0.1232,-0.1231,-0.1231,-0.1231,-0.0614,-0.0647,-0.0764,-0.0849,-0.1005,-0.1157,-0.1213,-0.122,-0.1183,-0.1196,-0.1175,-0.1101,-0.1226,-0.1227,-0.1227,-0.1228,-0.1229,-0.1229,-0.1229,-0.0597,-0.0622,-0.0703,-0.0853,-0.1048,-0.1207,-0.1212,-0.1195,-0.1142,-0.1104,-0.0991,-0.1136,-0.112,-0.1072,-0.1071,-0.1071,-0.1071,-0.1071,-0.1071,-0.0545,-0.0609,-0.0675,-0.0868,-0.1002,-0.1124,-0.1177,-0.1114,-0.106,-0.0917,-0.1073,-0.112,-0.1125,-0.1113,-0.1067,-0.1068,-0.1068,-0.1069,-0.1069,-0.0509,-0.0536,-0.0587,-0.07,-0.0911,-0.0977,-0.1097,-0.0947,-0.0852,-0.0728,-0.0819,-0.0832,-0.084,-0.0852,-0.083,-0.0699,-0.0697,-0.0695,0,-0.0471,-0.0489,-0.0504,-0.0568,-0.0647,-0.0841,-0.0721,-0.0698,-0.0627,-0.0576,-0.0787,-0.0891,-0.0899,-0.0914,-0.0921,-0.0897,0,0,0,-0.044,-0.0441,-0.0421,-0.0448,-0.0527,-0.0525,-0.0653,-0.0556,-0.071,-0.0568,-0.0635,-0.0651,-0.0954,-0.1056,-0.1101,-0.1107,-0.109,0,0]},{"header":{"parameterUnit":"m.s-1","parameterCategory":2,"la1":30.2992,"la2":30.254,"lo1":-89.0895,"lo2":-89.0443,"dy":0.0025,"dx":0.0025,"nx":19,"ny":19,"refTime":"2026-05-11T09:00:00:Z","depth":"4","parameterNumber":3,"parameterNumberName":"V-component_of_CURRENTS"},"data":[0,0,0,0.0118,0.0119,0.0176,0.0176,0.0199,0.0199,0,0,0,0,0,0,0,0,0,0,0,0.0097,0.0097,0.0118,0.0119,0.0175,0.0176,0.0199,0.0199,0,0,0,0,0,0,0,0,0,0,0,0.0096,0.0097,0.0097,0.0119,0.0175,0.0176,0.0199,0.0168,0,0,0,0,0,0,0,0,0,0,0.0119,0.0113,0.0097,0.0097,0.012,0.0175,0.0176,0.0167,0.017,0.0161,0,0.0173,0,0.0188,0.02,0.02,0,0,0,0.0117,0.011,0.0121,0.0097,0.012,0.0175,0.0149,0.0169,0.0172,0.0164,0.0174,0.0175,0.0188,0.02,0.02,0.0199,0.0199,0,0,0.0113,0.0109,0.0119,0.0123,0.0139,0.0148,0.0151,0.0172,0.0178,0.0174,0.0176,0.0189,0.02,0.02,0.0199,0.0199,0,0,0,0.0106,0.0107,0.0119,0.0122,0.0137,0.0149,0.0153,0.0177,0.018,0.0176,0.0189,0.02,0.02,0.0199,0.0199,0.0165,0,0,0,0.0104,0.0103,0.0117,0.0116,0.0137,0.0166,0.0158,0.0178,0.0182,0.0189,0.02,0.0201,0.0199,0.0199,0.0166,0.0163,0,0,0,0.0093,0.0102,0.0109,0.0115,0.0141,0.0166,0.0171,0.018,0.0189,0.02,0.0201,0.0199,0.0199,0.0167,0.0164,0.0179,0,0,0,0.0086,0.0086,0.0109,0.0105,0.0141,0.0135,0.0171,0.0182,0.0189,0.02,0.0199,0.0199,0.0167,0.0165,0.0179,0.0092,0,0,0,0.0076,0.0085,0.0078,0.0099,0.0075,0.0127,0.0118,0.0155,0.0182,0.0189,0.0189,0.0165,0.0164,0.0179,0.008,0,0,0,0,0.0066,0.0062,0.0057,0.0054,0.0059,0.0072,0.0113,0.0137,0.0166,0.0188,0.0171,0.0171,0.0182,0.0132,0.0198,0.0198,0.0198,0.0198,0.0198,0.0042,0.0033,0.0008,0.0002,0.0004,0.0038,0.0057,0.01,0.013,0.0146,0.0146,0.014,0.0084,0.0144,0.0144,0.0144,0.0144,0.0144,0.0144,0.0005,-0.0018,-0.0027,-0.0046,-0.0041,-0.0027,0.0017,0.0056,0.0102,0.0122,0.0134,0.0102,0.0141,0.0141,0.0142,0.0142,0.0142,0.0143,0.0143,-0.0017,-0.0033,-0.0038,-0.0077,-0.0074,-0.0042,-0.0032,0.003,0.0083,0.009,0.0071,0.0131,0.0133,0.011,0.011,0.011,0.011,0.011,0.011,-0.0039,-0.0054,-0.0087,-0.0103,-0.0122,-0.0104,-0.0041,-0.0039,0.002,0.0036,0.0101,0.0129,0.013,0.0132,0.0111,0.0111,0.0111,0.0111,0.0111,-0.0076,-0.0075,-0.0129,-0.016,-0.0216,-0.0197,-0.014,-0.0107,-0.0093,-0.0095,0.0009,0.0014,0.0028,0.0032,0.0031,-0.0021,-0.0022,-0.0023,0,-0.0103,-0.0107,-0.0181,-0.0251,-0.031,-0.0269,-0.0273,-0.0248,-0.0157,-0.0117,-0.0111,0.0007,0.0011,0.0025,0.0027,0.0024,0,0,0,-0.0141,-0.0148,-0.0208,-0.0273,-0.0346,-0.0324,-0.0266,-0.0243,-0.0145,-0.0208,-0.0053,-0.0045,-0.009,0.0113,0.0147,0.0148,0.0153,0,0]}]]